Location: Bakov nad Jizerou
(50.4784°N, 14.9394°E)
Time: 13:03:16
(UTC+00:00)

Cosmos 1892 Rocket - Pass Details

Date: 16 June 2021
Orbit: 605 x 634 km, 82.5° (Epoch: 03 August)

Event Time Altitude Azimuth Distance (km) Brightness Sun altitude
Exits shadow 22:12:18 27° 174° (S) 1,200 4.4 -15.4°
Maximum altitude 22:14:38 69° 97° (E) 670 3.6 -15.4°
Drops below altitude 10° 22:19:04 10° 14° (NNE) 2,017 7.2 -15.6°
Sets 22:21:20 0° 13° (NNE) 2,933 8.4 -15.6°
